{"data":{"norad_id":66001,"epoch":"2026-09-20T05:12:20.236896Z","epoch_age_seconds":164973,"freshness":"FRESH","line1":"1 66001U 25231G   26263.21690089 -.00000101  00000+0  50453-4 0  9993","line2":"2 66001  50.0013 194.6052 0000448  60.3944 299.6973 13.29328132 45539","mean_motion":13.29328132,"eccentricity":4.48e-5,"inclination_deg":50.0013,"raan_deg":194.6052,"arg_perigee_deg":60.3944,"mean_anomaly_deg":299.6973,"bstar":5.0453e-5,"rev_number":4553,"period_min":108.3253987737,"perigee_km":1148.9612943086,"apogee_km":1149.6357525315,"semimajor_km":7527.4355234201,"source":"CELESTRAK","updated_at":"2026-09-21T09:00:15.694076Z"}}